Location: Seasalter
(51.3333°N, 1.0167°E)
Time: 04:23:30
(UTC+00:00)

ATLAS 5 CENTAUR R/B - Pass Details

Date: 27 April 2024
Orbit: 421 x 1170 km, 63.3° (Epoch: 18 May)

Event Time Altitude Azimuth Distance (km) Brightness Sun altitude
Rises 01:36:39 0° 310° (NW) 2,967 5.2 -21.0°
Reaches altitude 10° 01:38:52 10° 303° (WNW) 2,163 4.4 -20.8°
Enters shadow 01:43:26 38° 236° (WSW) 1,204 2.5 -20.5°
